CW6682 Weather Reports


Display with metric or nautical units.
time (UTC)temp
F
wind
direction
speed
MPH
gust
MPH
rain 1hr
in
rain 24hr
in
rain mn
in
humidity
%
barometer
mb
20260508044549 82 262 0.0 0.0 0.00 0.00 0.00 15 1007.1
20260508043054 83 262 0.0 0.0 0.00 0.00 0.00 14 1006.8
20260508041547 84 261 0.0 0.0 0.00 0.00 0.00 14 1006.7
20260508040053 84 261 0.0 0.0 0.00 0.00 0.00 13 1006.6
20260508034546 85 262 0.0 0.0 0.00 0.00 0.00 13 1006.2
20260508033045 86 262 0.0 0.0 0.00 0.00 0.00 12 1006.1
20260508031545 86 261 0.0 0.0 0.00 0.00 0.00 12 1006.0
20260508030045 87 261 0.0 0.0 0.00 0.00 0.00 11 1005.8
20260508024550 87 261 0.0 0.0 0.00 0.00 0.00 11 1005.6
20260508023044 88 261 0.0 0.0 0.00 0.00 0.00 10 1005.5
20260508021544 88 261 0.0 0.0 0.00 0.00 0.00 10 1005.2
20260508020043 89 261 3.0 0.0 0.00 0.00 0.00 10 1005.3
20260508014544 90 259 5.0 0.0 0.00 0.00 0.00 9 1005.1
20260508013045 91 269 5.0 0.0 0.00 0.00 0.00 9 1005.1
20260508011540 91 235 4.0 0.0 0.00 0.00 0.00 9 1005.0
20260508010039 91 246 5.0 0.0 0.00 0.00 0.00 8 1005.1
20260508004538 92 298 4.0 0.0 0.00 0.00 0.00 8 1005.1
20260508003038 92 309 6.0 0.0 0.00 0.00 0.00 8 1005.0
20260508001537 92 327 3.0 0.0 0.00 0.00 0.00 8 1005.1
20260508000039 92 269 6.0 0.0 0.00 0.00 0.00 8 1005.1
20260507234535 92 323 5.0 0.0 0.00 0.00 0.00 8 1005.1
20260507233041 93 313 0.0 0.0 0.00 0.00 0.00 8 1005.1
20260507231536 92 11 2.0 0.0 0.00 0.00 0.00 7 1005.2
20260507230029 91 150 5.0 0.0 0.00 0.00 0.00 7 1005.6
20260507224536 91 260 5.0 0.0 0.00 0.00 0.00 8 1005.7
20260507223026 91 175 4.0 0.0 0.00 0.00 0.00 8 1005.9
20260507221534 91 150 2.0 0.0 0.00 0.00 0.00 8 1006.2
20260507220023 91 202 4.0 0.0 0.00 0.00 0.00 7 1006.3
20260507214521 91 294 3.0 0.0 0.00 0.00 0.00 8 1006.6
20260507213023 91 270 6.0 0.0 0.00 0.00 0.00 8 1006.8
20260507211523 90 188 4.0 0.0 0.00 0.00 0.00 9 1007.1
20260507210017 90 302 5.0 0.0 0.00 0.00 0.00 9 1007.2
20260507204515 90 298 2.0 0.0 0.00 0.00 0.00 9 1007.4
20260507203015 90 305 2.0 0.0 0.00 0.00 0.00 10 1007.7
20260507201514 89 173 2.0 0.0 0.00 0.00 0.00 10 1008.0
20260507200012 88 140 1.0 0.0 0.00 0.00 0.00 10 1008.2
20260507194512 89 138 1.0 0.0 0.00 0.00 0.00 10 1008.5
20260507193009 88 138 1.0 0.0 0.00 0.00 0.00 10 1008.8
20260507191507 88 142 4.0 0.0 0.00 0.00 0.00 10 1009.1
20260507190008 88 159 1.0 0.0 0.00 0.00 0.00 11 1009.1
20260507184502 86 156 4.0 0.0 0.00 0.00 0.00 12 1009.3
20260507183104 86 236 0.0 0.0 0.00 0.00 0.00 13 1009.6
20260507181559 85 280 1.0 0.0 0.00 0.00 0.00 14 1009.7
20260507180053 83 200 2.0 0.0 0.00 0.00 0.00 16 1009.8
20260507174551 83 200 4.0 0.0 0.00 0.00 0.00 14 1010.2
20260507173046 82 202 4.0 0.0 0.00 0.00 0.00 15 1010.3
20260507171543 81 203 4.0 0.0 0.00 0.00 0.00 16 1010.4
20260507170038 80 244 3.0 0.0 0.00 0.00 0.00 17 1010.3
20260507164541 79 247 3.0 0.0 0.00 0.00 0.00 20 1010.4
20260507163030 78 355 3.0 0.0 0.00 0.00 0.00 22 1010.7
20260507161527 77 360 3.0 0.0 0.00 0.00 0.00 24 1010.8
20260507160027 77 5 2.0 0.0 0.00 0.00 0.00 26 1010.8
20260507154525 78 5 0.0 0.0 0.00 0.00 0.00 25 1010.8
20260507153021 76 5 1.0 0.0 0.00 0.00 0.00 22 1010.9
20260507151516 76 360 2.0 0.0 0.00 0.00 0.00 23 1010.9
20260507150021 75 360 1.0 0.0 0.00 0.00 0.00 23 1010.9
20260507144519 73 360 4.0 0.0 0.00 0.00 0.00 25 1010.9
20260507143004 72 336 3.0 0.0 0.00 0.00 0.00 28 1010.9
20260507141604 71 360 1.0 0.0 0.00 0.00 0.00 29 1010.9
20260507140101 70 22 3.0 0.0 0.00 0.00 0.00 29 1010.7
20260507134603 69 22 4.0 0.0 0.00 0.00 0.00 30 1010.6
20260507133120 68 22 4.0 0.0 0.00 0.00 0.00 30 1010.5
20260507131554 68 22 4.0 0.0 0.00 0.00 0.00 30 1010.6
20260507130104 67 44 3.0 0.0 0.00 0.00 0.00 31 1010.5
20260507124546 66 52 2.0 0.0 0.00 0.00 0.00 32 1010.5
20260507123044 66 179 1.0 0.0 0.00 0.00 0.00 32 1010.5
20260507121556 66 205 3.0 0.0 0.00 0.00 0.00 31 1010.5
20260507120054 66 205 1.0 0.0 0.00 0.00 0.00 31 1010.5
20260507114624 67 205 0.0 0.0 0.00 0.00 0.00 31 1010.4
20260507113042 66 205 1.0 0.0 0.00 0.00 0.00 31 1010.5
20260507111542 66 205 2.0 0.0 0.00 0.00 0.00 31 1010.5
20260507110041 66 205 1.0 0.0 0.00 0.00 0.00 31 1010.6
20260507104539 67 205 3.0 0.0 0.00 0.00 0.00 31 1010.7
20260507103039 67 205 3.0 0.0 0.00 0.00 0.00 31 1010.9
20260507101543 66 205 2.0 0.0 0.00 0.00 0.00 33 1011.0
20260507100037 66 205 0.0 0.0 0.00 0.00 0.00 32 1011.2
20260507094534 67 205 1.0 0.0 0.00 0.00 0.00 32 1011.1
20260507093033 67 205 1.0 0.0 0.00 0.00 0.00 31 1011.1
20260507091541 67 205 2.0 0.0 0.00 0.00 0.00 32 1011.2
20260507090037 68 205 0.0 0.0 0.00 0.00 0.00 31 1011.4
20260507084530 68 205 0.0 0.0 0.00 0.00 0.00 31 1011.4
20260507083032 68 205 1.0 0.0 0.00 0.00 0.00 31 1011.6
20260507081529 68 205 0.0 0.0 0.00 0.00 0.00 32 1011.7
20260507080030 68 205 0.0 0.0 0.00 0.00 0.00 31 1011.7
20260507074526 68 205 0.0 0.0 0.00 0.00 0.00 32 1011.7
20260507073022 69 205 0.0 0.0 0.00 0.00 0.00 32 1011.5
20260507071518 71 205 0.0 0.0 0.00 0.00 0.00 30 1011.5
20260507070024 71 205 1.0 0.0 0.00 0.00 0.00 29 1011.5
20260507064515 72 205 2.0 0.0 0.00 0.00 0.00 31 1011.5
20260507063014 71 205 1.0 0.0 0.00 0.00 0.00 29 1011.4
20260507061515 72 205 1.0 0.0 0.00 0.00 0.00 30 1011.5
20260507060014 71 205 0.0 0.0 0.00 0.00 0.00 31 1011.5
20260507054519 72 205 0.0 0.0 0.00 0.00 0.00 30 1011.5
20260507053014 72 205 0.0 0.0 0.00 0.00 0.00 30 1011.5
20260507051513 73 205 0.0 0.0 0.00 0.00 0.00 27 1011.4
20260507050013 74 205 0.0 0.0 0.00 0.00 0.00 26 1011.3